Location: Bagnara
(41.0500°N, 14.7833°E)
Time: 09:35:22
(UTC+00:00)

Cosmos 1553 Rocket - Pass Details

Date: 20 June 2021
Orbit: 941 x 1009 km, 82.9° (Epoch: 27 July)

Event Time Altitude Azimuth Distance (km) Brightness Sun altitude
Rises 02:03:41 0° 346° (NNW) 3,709 7.5 -13.0°
Reaches altitude 10° 02:06:20 10° 341° (NNW) 2,746 6.7 -12.7°
Maximum altitude 02:12:16 46° 270° (W) 1,288 4.4 -11.9°
Enters shadow 02:17:51 11° 200° (SSW) 2,608 5.7 -11.2°
